GW0149 Weather Reports


time (UTC)temp
C
wind
direction
speed
KPH
gust
KPH
rain 1hr
cm
rain 24hr
cm
rain mn
cm
humidity
%
barometer
mb
20260906111157 22 120 1.6 3.2 0.00 0.00 0.00 99 1016.5
20260906110653 22 117 1.6 3.2 0.00 0.00 0.00 99 1016.6
20260906110148 22 172 0.0 0.0 0.00 0.00 0.00 99 1016.6
20260906105642 22 106 0.0 1.6 0.00 0.00 0.00 99 1016.6
20260906105138 22 120 0.0 0.0 0.00 0.00 0.00 99 1016.3
20260906104638 22 120 0.0 0.0 0.00 0.00 0.00 99 1016.2
20260906104137 22 120 1.6 1.6 0.00 0.00 0.00 99 1016.2
20260906103635 22 120 0.0 1.6 0.00 0.00 0.00 99 1016.3
20260906103130 22 145 0.0 3.2 0.00 0.00 0.00 99 1016.3
20260906102625 22 120 1.6 3.2 0.00 0.00 0.00 99 1016.1
20260906102120 22 114 3.2 3.2 0.00 0.00 0.00 99 1016.2
20260906101614 22 140 0.0 3.2 0.00 0.00 0.00 99 1016.2
20260906101109 22 132 3.2 3.2 0.00 0.00 0.00 99 1016.3
20260906100605 22 172 0.0 1.6 0.00 0.00 0.00 99 1016.0
20260906100105 22 117 1.6 3.2 0.00 0.00 0.00 99 1015.8
20260906095604 22 147 3.2 3.2 0.00 0.00 0.00 99 1016.0
20260906095100 22 135 3.2 3.2 0.00 0.00 0.00 99 1015.8
20260906094559 22 126 0.0 1.6 0.00 0.00 0.00 99 1015.8
20260906094055 22 103 0.0 0.0 0.00 0.00 0.00 99 1015.7
20260906093550 22 105 0.0 1.6 0.00 0.00 0.00 99 1015.7
20260906093045 22 120 0.0 1.6 0.00 0.00 0.00 99 1015.9
20260906092540 22 114 0.0 0.0 0.00 0.00 0.00 99 1015.7
20260906092035 22 180 0.0 1.6 0.00 0.00 0.00 99 1015.6
20260906091531 22 157 0.0 1.6 0.00 0.00 0.00 99 1015.7
20260906091027 22 131 0.0 3.2 0.00 0.00 0.00 99 1015.7
20260906090522 22 106 0.0 3.2 0.00 0.00 0.00 99 1015.6
20260906090017 22 120 0.0 1.6 0.00 0.00 0.00 99 1015.8
20260906085516 22 117 1.6 3.2 0.00 0.00 0.00 99 1015.7
20260906085015 22 126 0.0 1.6 0.00 0.00 0.00 99 1015.6
20260906084510 22 114 0.0 1.6 0.00 0.00 0.00 99 1015.8
20260906084009 22 120 0.0 3.2 0.00 0.00 0.00 99 1015.7
20260906083505 22 131 3.2 3.2 0.00 0.00 0.00 99 1015.6
20260906083004 22 119 3.2 3.2 0.00 0.00 0.00 99 1015.7
20260906082459 22 131 0.0 3.2 0.00 0.00 0.00 99 1015.3
20260906081955 22 140 3.2 3.2 0.00 0.00 0.00 99 1015.5
20260906081450 22 121 3.2 3.2 0.00 0.00 0.00 99 1015.4
20260906080946 22 114 3.2 3.2 0.00 0.00 0.00 99 1015.2
20260906080442 22 123 3.2 3.2 0.00 0.00 0.00 99 1015.3
20260906075937 22 126 1.6 3.2 0.00 0.00 0.00 99 1015.3
20260906075431 22 120 1.6 3.2 0.00 0.00 0.00 99 1015.1
20260906074926 22 144 0.0 3.2 0.00 0.00 0.00 99 1015.0
20260906074421 22 127 3.2 3.2 0.00 0.00 0.00 99 1015.2
20260906073920 22 120 0.0 1.6 0.00 0.00 0.00 99 1015.1
20260906073415 22 120 1.6 3.2 0.00 0.00 0.00 99 1015.0
20260906072911 22 132 3.2 3.2 0.00 0.00 0.00 99 1015.3
20260906072406 22 124 3.2 3.2 0.00 0.00 0.00 99 1015.1
20260906071902 22 139 0.0 3.2 0.00 0.00 0.00 99 1015.2
20260906071357 22 123 3.2 3.2 0.00 0.00 0.00 99 1015.1
20260906070853 22 135 0.0 3.2 0.00 0.00 0.00 99 1015.1
20260906070349 22 135 3.2 3.2 0.00 0.00 0.00 99 1015.3
20260906065844 22 126 1.6 3.2 0.00 0.00 0.00 99 1015.3
20260906065339 22 117 0.0 3.2 0.00 0.00 0.00 99 1015.3
20260906064834 22 151 0.0 3.2 0.00 0.00 0.00 99 1015.3
20260906064330 22 125 3.2 3.2 0.00 0.00 0.00 99 1015.3
20260906063825 22 111 0.0 1.6 0.00 0.00 0.00 99 1015.3
20260906063320 22 126 0.0 3.2 0.00 0.00 0.00 99 1015.3
20260906062815 22 188 0.0 1.6 0.00 0.00 0.00 99 1015.1
20260906062314 22 157 0.0 3.2 0.00 0.00 0.00 99 1015.3
20260906061810 22 180 0.0 1.6 0.00 0.00 0.00 99 1015.4
20260906061306 22 120 0.0 3.2 0.00 0.00 0.00 99 1015.4
20260906060801 22 124 3.2 3.2 0.00 0.00 0.00 99 1015.5
20260906060259 22 99 0.0 0.0 0.00 0.00 0.00 99 1015.5
20260906055754 22 106 0.0 0.0 0.00 0.00 0.00 99 1015.4
20260906055249 22 180 0.0 1.6 0.00 0.00 0.00 99 1015.5
20260906054745 22 165 0.0 1.6 0.00 0.00 0.00 99 1015.6
20260906054240 22 188 0.0 3.2 0.00 0.00 0.00 99 1015.7
20260906053737 22 112 3.2 3.2 0.00 0.00 0.00 99 1015.4
20260906053232 22 135 0.0 3.2 0.00 0.00 0.00 99 1015.6
20260906052727 22 128 3.2 4.8 0.00 0.00 0.00 99 1015.5
20260906052223 22 124 3.2 4.8 0.00 0.00 0.00 99 1015.5
20260906051720 22 114 1.6 3.2 0.00 0.00 0.00 99 1015.6
20260906051219 22 120 0.0 3.2 0.00 0.00 0.00 99 1015.6
20260906050715 22 128 3.2 3.2 0.00 0.00 0.00 99 1015.8
20260906050210 22 99 0.0 1.6 0.00 0.00 0.00 99 1015.6
20260906045708 22 123 0.0 3.2 0.00 0.00 0.00 99 1015.7
20260906045203 22 140 3.2 3.2 0.00 0.00 0.00 99 1015.7
20260906044659 22 140 0.0 3.2 0.00 0.00 0.00 99 1015.8
20260906044154 22 112 0.0 3.2 0.00 0.00 0.00 99 1015.6
20260906043650 22 135 3.2 3.2 0.00 0.00 0.00 99 1015.7
20260906043146 22 119 3.2 3.2 0.00 0.00 0.00 99 1015.7
20260906042645 23 120 3.2 4.8 0.00 0.00 0.00 99 1015.8
20260906042139 23 145 1.6 3.2 0.00 0.00 0.00 99 1015.8
20260906041635 23 114 1.6 3.2 0.00 0.00 0.00 99 1015.7
20260906041130 23 123 3.2 3.2 0.00 0.00 0.00 99 1015.9
20260906040626 23 135 3.2 3.2 0.00 0.00 0.00 99 1015.7
20260906040121 23 102 0.0 4.8 0.00 0.00 0.00 99 1015.8
20260906035616 23 135 3.2 4.8 0.00 0.00 0.00 99 1015.8
20260906035112 23 120 1.6 3.2 0.00 0.00 0.00 99 1015.9
20260906034612 23 111 1.6 3.2 0.00 0.00 0.00 99 1015.9
20260906034106 23 120 0.0 3.2 0.00 0.00 0.00 99 1016.1
20260906033602 23 114 3.2 3.2 0.00 0.00 0.00 99 1016.1
20260906033057 23 132 3.2 3.2 0.00 0.00 0.00 99 1016.1
20260906032553 23 128 3.2 3.2 0.00 0.00 0.00 99 1016.1
20260906032048 23 120 0.0 3.2 0.00 0.00 0.00 99 1016.2
20260906031543 23 126 0.0 3.2 0.00 0.00 0.00 99 1016.2
20260906031039 23 128 3.2 4.8 0.00 0.00 0.00 99 1016.2
20260906030538 23 131 3.2 3.2 0.00 0.00 0.00 99 1016.2
20260906030037 23 151 0.0 1.6 0.00 0.00 0.00 99 1016.1
20260906025532 23 162 1.6 1.6 0.00 0.00 0.00 99 1016.3
20260906025030 23 157 0.0 3.2 0.00 0.00 0.00 99 1016.4
20260906024525 23 120 3.2 3.2 0.00 0.00 0.00 99 1016.3
20260906024020 23 144 3.2 3.2 0.00 0.00 0.00 99 1016.1
20260906023516 23 139 3.2 3.2 0.00 0.00 0.00 99 1016.2
20260906023011 23 126 0.0 3.2 0.00 0.00 0.00 99 1016.1
20260906022506 23 120 0.0 1.6 0.00 0.00 0.00 99 1016.1
20260906022001 23 128 3.2 3.2 0.00 0.00 0.00 99 1016.0
20260906021456 23 131 0.0 3.2 0.00 0.00 0.00 99 1016.1
20260906020951 23 132 3.2 4.8 0.00 0.00 0.00 99 1016.2
20260906020444 23 127 3.2 3.2 0.00 0.00 0.00 99 1016.1
20260906015938 23 172 0.0 0.0 0.00 0.00 0.00 99 1016.0
20260906015433 23 165 0.0 1.6 0.00 0.00 0.00 99 1016.0
20260906014933 23 157 0.0 1.6 0.00 0.00 0.00 99 1015.9
20260906014432 23 126 0.0 0.0 0.00 0.00 0.00 99 1015.9
20260906013929 23 114 0.0 1.6 0.00 0.00 0.00 99 1015.9
20260906013424 23 135 3.2 3.2 0.00 0.00 0.00 99 1015.8
20260906012920 23 180 0.0 3.2 0.00 0.00 0.00 99 1015.8
20260906012420 23 166 0.0 1.6 0.00 0.00 0.00 99 1015.5
20260906011919 23 120 0.0 0.0 0.00 0.00 0.00 99 1015.6
20260906011414 23 120 0.0 0.0 0.00 0.00 0.00 99 1015.5
20260906010910 23 120 0.0 1.6 0.00 0.00 0.00 99 1015.5
20260906010405 23 165 0.0 1.6 0.00 0.00 0.00 99 1015.6
20260906005901 23 151 0.0 1.6 0.00 0.00 0.00 99 1015.6
20260906005400 23 126 0.0 3.2 0.00 0.00 0.00 99 1015.5
20260906004858 24 126 0.0 3.2 0.00 0.00 0.00 99 1015.4
20260906004353 24 114 3.2 3.2 0.00 0.00 0.00 99 1015.3
20260906003849 24 124 3.2 3.2 0.00 0.00 0.00 99 1015.3
20260906003344 24 127 0.0 4.8 0.00 0.00 0.00 99 1015.3
20260906002840 24 125 3.2 3.2 0.00 0.00 0.00 99 1015.3
20260906002339 25 114 1.6 3.2 0.00 0.00 0.00 99 1015.4
20260906001835 25 124 3.2 3.2 0.00 0.00 0.00 99 1015.5
20260906001330 25 114 3.2 3.2 0.00 0.00 0.00 99 1015.3
20260906000825 25 131 3.2 3.2 0.00 0.00 0.00 99 1015.6
20260906000320 25 120 0.0 0.0 0.00 0.00 0.00 99 1015.3
20260905235819 25 106 1.6 1.6 0.00 0.00 0.00 99 1015.5
20260905235314 25 126 1.6 1.6 0.00 0.00 0.00 99 1015.4
20260905234810 25 131 0.0 3.2 0.00 0.00 0.00 99 1015.4
20260905234305 25 120 0.0 1.6 0.00 0.00 0.00 99 1015.5
20260905233759 25 114 0.0 0.0 0.00 0.00 0.00 99 1015.5
20260905233254 25 117 0.0 1.6 0.00 0.00 0.00 99 1015.5
20260905232753 25 120 0.0 0.0 0.00 0.00 0.00 99 1015.5
20260905232249 25 111 0.0 1.6 0.00 0.00 0.00 99 1015.5
20260905231745 25 120 0.0 1.6 0.00 0.00 0.00 99 1015.6
20260905231240 25 154 0.0 0.0 0.00 0.00 0.00 99 1015.5
20260905230737 25 154 0.0 0.0 0.00 0.00 0.00 99 1015.4
20260905230234 25 120 0.0 1.6 0.00 0.00 0.00 99 1015.3
20260905225734 25 126 0.0 3.2 0.00 0.00 0.00 99 1015.3
20260905225229 25 106 1.6 3.2 0.00 0.00 0.00 99 1015.1
20260905224728 25 102 3.2 3.2 0.00 0.00 0.00 99 1015.1
20260905224224 25 151 0.0 3.2 0.00 0.00 0.00 99 1015.2
20260905223720 25 123 3.2 3.2 0.00 0.00 0.00 99 1015.1
20260905223217 25 126 0.0 1.6 0.00 0.00 0.00 99 1015.2
20260905222712 25 157 0.0 3.2 0.00 0.00 0.00 99 1015.3
20260905222211 25 126 0.0 1.6 0.00 0.00 0.00 99 1015.3
20260905221707 25 124 3.2 3.2 0.00 0.00 0.00 99 1015.3
20260905221204 26 126 0.0 3.2 0.00 0.00 0.00 99 1015.5
20260905220659 26 99 0.0 3.2 0.00 0.00 0.00 99 1015.5
20260905220155 26 123 0.0 0.0 0.00 0.00 0.00 99 1015.5
20260905215654 26 126 0.0 1.6 0.00 0.00 0.00 99 1015.7
20260905215150 25 131 0.0 3.2 0.00 0.00 0.00 99 1015.6
20260905214646 25 127 3.2 3.2 0.00 0.00 0.00 99 1015.7
20260905214141 25 127 3.2 3.2 0.00 0.00 0.00 99 1015.7
20260905213636 25 106 3.2 4.8 0.00 0.00 0.00 99 1015.8
20260905213132 26 154 1.6 4.8 0.00 0.00 0.00 99 1015.9
20260905212627 26 187 3.2 3.2 0.00 0.00 0.00 99 1016.0
20260905212126 25 143 3.2 3.2 0.00 0.00 0.00 99 1016.0
20260905211621 25 135 3.2 4.8 0.00 0.00 0.00 99 1016.0
20260905211117 25 144 3.2 4.8 0.00 0.00 0.00 99 1016.2
20260905210613 25 188 0.0 3.2 0.00 0.00 0.00 99 1016.3
20260905210108 25 139 3.2 4.8 0.00 0.00 0.00 99 1016.2
20260905205607 25 252 0.0 6.4 0.00 0.00 0.00 99 1016.2
20260905205107 26 356 9.7 32.2 0.00 0.00 0.00 98 1016.5
20260905204606 30 290 0.0 16.1 0.00 0.00 0.00 81 1016.0
20260905204101 31 125 3.2 17.7 0.00 0.00 0.00 77 1015.7
20260905203556 31 66 0.0 4.8 0.00 0.00 0.00 80 1015.7
20260905203051 32 135 3.2 3.2 0.00 0.00 0.00 77 1015.4
20260905202547 32 151 1.6 3.2 0.00 0.00 0.00 75 1015.3
20260905202042 33 139 3.2 3.2 0.00 0.00 0.00 71 1015.4
20260905201538 33 270 4.8 4.8 0.00 0.00 0.00 68 1015.5
20260905201037 33 239 3.2 3.2 0.00 0.00 0.00 66 1015.6
20260905200533 33 325 1.6 6.4 0.00 0.00 0.00 66 1015.7
20260905200032 33 348 1.6 6.4 0.00 0.00 0.00 65 1015.7
20260905195526 34 290 4.8 8.0 0.00 0.00 0.00 63 1015.6
20260905195022 35 14 0.0 4.8 0.00 0.00 0.00 63 1015.7
20260905194521 35 0 3.2 4.8 0.00 0.00 0.00 63 1015.9
20260905194015 34 353 0.0 3.2 0.00 0.00 0.00 64 1015.9
20260905193510 35 233 4.8 8.0 0.00 0.00 0.00 64 1016.0
20260905193006 34 283 1.6 6.4 0.00 0.00 0.00 66 1015.8
20260905192501 34 221 4.8 8.0 0.00 0.00 0.00 65 1015.8
20260905191957 34 239 9.7 9.7 0.00 0.00 0.00 67 1016.1
20260905191455 33 124 0.0 4.8 0.00 0.00 0.00 69 1015.9
20260905190954 33 270 3.2 8.0 0.00 0.00 0.00 69 1016.1
20260905190452 33 303 4.8 8.0 0.00 0.00 0.00 70 1016.1
20260905185951 33 222 4.8 8.0 0.00 0.00 0.00 69 1016.3
20260905185447 33 216 3.2 4.8 0.00 0.00 0.00 70 1016.3
20260905184945 32 195 1.6 4.8 0.00 0.00 0.00 74 1016.4
20260905184440 32 270 3.2 6.4 0.00 0.00 0.00 74 1016.7
20260905183939 32 235 4.8 8.0 0.00 0.00 0.00 75 1016.6
20260905183433 33 0 6.4 8.0 0.00 0.00 0.00 74 1016.7
20260905182929 33 252 4.8 6.4 0.00 0.00 0.00 73 1016.8
20260905182428 32 307 6.4 11.3 0.00 0.00 0.00 76 1016.8
20260905181924 32 266 3.2 8.0 0.00 0.00 0.00 74 1017.0
20260905181418 32 290 8.0 8.0 0.00 0.00 0.00 75 1017.0
20260905180917 32 303 3.2 8.0 0.00 0.00 0.00 75 1017.2
20260905180413 32 302 4.8 6.4 0.00 0.00 0.00 74 1017.1
20260905175913 32 270 0.0 4.8 0.00 0.00 0.00 73 1017.3
20260905175412 32 334 1.6 11.3 0.00 0.00 0.00 74 1017.2
20260905174907 33 210 4.8 4.8 0.00 0.00 0.00 72 1017.3
20260905174403 32 291 0.0 4.8 0.00 0.00 0.00 73 1017.4
20260905173858 32 118 6.4 6.4 0.00 0.00 0.00 74 1017.4
20260905173355 32 90 1.6 8.0 0.00 0.00 0.00 79 1017.5
20260905172849 31 337 0.0 4.8 0.00 0.00 0.00 76 1017.6
20260905172347 32 348 6.4 6.4 0.00 0.00 0.00 76 1017.6
20260905171843 32 169 3.2 4.8 0.00 0.00 0.00 75 1017.5
20260905171340 31 254 3.2 4.8 0.00 0.00 0.00 77 1017.8
20260905170836 31 127 3.2 3.2 0.00 0.00 0.00 78 1017.7
20260905170332 31 121 4.8 8.0 0.00 0.00 0.00 77 1017.8
20260905165831 31 236 6.4 8.0 0.00 0.00 0.00 77 1017.9
20260905165327 31 117 3.2 6.4 0.00 0.00 0.00 76 1018.1
20260905164826 31 4 0.0 3.2 0.00 0.00 0.00 78 1018.4
20260905164321 31 257 4.8 6.4 0.00 0.00 0.00 80 1018.2
20260905163817 31 297 1.6 4.8 0.00 0.00 0.00 79 1018.3
20260905163313 31 206 3.2 6.4 0.00 0.00 0.00 79 1018.3
20260905162809 30 29 3.2 8.0 0.00 0.00 0.00 81 1018.4
20260905162305 30 240 8.0 11.3 0.00 0.00 0.00 79 1018.5
20260905161757 31 221 3.2 6.4 0.00 0.00 0.00 81 1018.6
20260905161256 31 236 4.8 6.4 0.00 0.00 0.00 78 1018.4
20260905160755 31 112 4.8 4.8 0.00 0.00 0.00 81 1018.5
20260905160249 31 117 3.2 3.2 0.00 0.00 0.00 80 1018.5
20260905155744 30 236 0.0 4.8 0.00 0.00 0.00 80 1018.7
20260905155243 30 346 1.6 4.8 0.00 0.00 0.00 85 1018.5
20260905154737 30 336 3.2 9.7 0.00 0.00 0.00 82 1018.6
20260905154233 30 0 0.0 4.8 0.00 0.00 0.00 83 1018.7
20260905153728 28 0 1.6 9.7 0.00 0.00 0.00 84 1018.5
20260905153224 28 282 6.4 9.7 0.00 0.00 0.00 84 1018.7
20260905152719 28 304 0.0 8.0 0.00 0.00 0.00 85 1018.4
20260905152219 29 270 0.0 3.2 0.00 0.00 0.00 84 1018.5
20260905151713 29 155 4.8 6.4 0.00 0.00 0.00 83 1018.4
20260905151209 28 263 0.0 4.8 0.00 0.00 0.00 84 1018.4
20260905150704 28 337 1.6 8.0 0.00 0.00 0.00 86 1018.2
20260905150203 28 279 4.8 6.4 0.00 0.00 0.00 88 1018.3
20260905145701 28 0 3.2 8.0 0.00 0.00 0.00 87 1018.5
20260905145155 28 345 0.0 4.8 0.00 0.00 0.00 86 1018.5
20260905144655 28 270 0.0 6.4 0.00 0.00 0.00 87 1018.4
20260905144155 28 297 0.0 0.0 0.00 0.00 0.00 87 1018.5
20260905143654 28 29 1.6 6.4 0.00 0.00 0.00 90 1018.3
20260905143149 28 83 0.0 6.4 0.00 0.00 0.00 87 1018.3
20260905142648 27 254 0.0 4.8 0.00 0.00 0.00 89 1018.3
20260905142148 27 5 3.2 3.2 0.00 0.00 0.00 89 1018.3
20260905141643 28 320 6.4 6.4 0.00 0.00 0.00 89 1018.2
20260905141139 28 145 0.0 3.2 0.00 0.00 0.00 88 1018.3
20260905140634 27 355 3.2 3.2 0.00 0.00 0.00 90 1018.3
20260905140133 27 139 3.2 4.8 0.00 0.00 0.00 92 1018.4
20260905135628 26 15 0.0 0.0 0.00 0.00 0.00 97 1018.3
20260905135124 25 90 1.6 4.8 0.00 0.00 0.00 99 1018.3
20260905134618 25 98 0.0 3.2 0.00 0.00 0.00 99 1018.3
20260905134117 24 0 1.6 6.4 0.00 0.00 0.00 99 1018.4
20260905133613 25 355 0.0 4.8 0.00 0.00 0.00 99 1018.2
20260905133113 24 354 1.6 3.2 0.00 0.00 0.00 99 1018.3
20260905132612 23 0 0.0 4.8 0.00 0.00 0.00 99 1018.3
20260905132107 23 12 0.0 1.6 0.00 0.00 0.00 99 1018.2
20260905131603 25 90 0.0 1.6 0.00 0.00 0.00 99 1018.2
20260905131058 23 90 0.0 0.0 0.00 0.00 0.00 99 1018.1
20260905130557 23 99 0.0 3.2 0.00 0.00 0.00 99 1018.3
20260905130052 23 123 3.2 3.2 0.00 0.00 0.00 99 1018.3
20260905125551 22 120 0.0 3.2 0.00 0.00 0.00 99 1018.2
20260905125047 22 114 0.0 0.0 0.00 0.00 0.00 99 1018.3
20260905124543 22 114 0.0 3.2 0.00 0.00 0.00 99 1018.2
20260905124039 22 120 1.6 3.2 0.00 0.00 0.00 99 1018.3
20260905123534 22 117 0.0 3.2 0.00 0.00 0.00 99 1018.4
20260905123031 22 114 3.2 3.2 0.00 0.00 0.00 99 1018.4
20260905122530 22 120 0.0 1.6 0.00 0.00 0.00 99 1018.2
20260905122025 22 117 0.0 0.0 0.00 0.00 0.00 99 1017.9
20260905121521 22 114 3.2 3.2 0.00 0.00 0.00 99 1018.0
20260905121021 22 102 3.2 3.2 0.00 0.00 0.00 99 1018.1
20260905120515 22 115 3.2 3.2 0.00 0.00 0.00 99 1018.0
20260905120010 22 150 3.2 3.2 0.00 0.00 0.00 99 1018.0
20260905115509 22 117 0.0 1.6 0.00 0.00 0.00 99 1017.9
20260905115004 22 131 3.2 3.2 0.00 0.00 0.00 99 1018.0
20260905114504 21 106 0.0 1.6 0.00 0.00 0.00 99 1018.0
20260905114003 22 109 1.6 3.2 0.00 0.00 0.00 99 1017.9
20260905113458 22 154 0.0 1.6 0.00 0.00 0.00 99 1018.0
20260905112953 22 105 1.6 3.2 0.00 0.00 0.00 99 1017.9
20260905112448 22 111 1.6 3.2 0.00 0.00 0.00 99 1017.8
20260905111943 22 120 1.6 3.2 0.00 0.00 0.00 99 1017.7
20260905111438 22 106 1.6 3.2 0.00 0.00 0.00 99 1017.7